This demonstration page uses our WeatherBlox Daily Observations layout. Learn more.

Left ArrowRight Arrow

47.50024, -111.30081

Hourly Observations for January 26, 2018

Temp ( °F °C ) Dew Point ( °F °C ) Humidity (%) Winds ( mph kmh ) Pressure ( in mb ) Visibility ( mi km ) Precip ( " mm )
12:53 am 00:53 Clear 28 -2.2 16 -8.9 60 60 SW 13 20 29.82 1010 10 16 0.00 0.00
1:53 am 01:53 Clear 29 -1.7 17 -8.3 61 61 SW 14 22 29.82 1010 10 16 0.00 0.00
2:53 am 02:53 Clear 30 -1.1 18 -7.8 61 61 SW 15 24 29.84 1011 10 16 0.00 0.00
3:53 am 03:53 Clear 28 -2.2 17 -8.3 63 63 SW 14 22 29.87 1011 10 16 0.00 0.00
4:53 am 04:53 Clear 28 -2.2 16 -8.9 60 60 SW 14 22 29.90 1013 10 16 0.00 0.00
5:53 am 05:53 Clear 28 -2.2 15 -9.4 58 58 SW 18 30 29.93 1014 10 16 0.00 0.00
6:53 am 06:53 Clear 28 -2.2 15 -9.4 58 58 WSW 17 28 29.96 1014 10 16 0.00 0.00
7:53 am 07:53 Clear 29 -1.7 15 -9.4 56 56 SW 17 28 29.98 1015 10 16 0.00 0.00
8:53 am 08:53 Sunny 29 -1.7 16 -8.9 58 58 SW 13 20 30.01 1016 10 16 0.00 0.00
9:53 am 09:53 Sunny 33 0.6 16 -8.9 49 49 SW 15 24 30.02 1017 10 16 0.00 0.00
10:53 am 10:53 Sunny 37 2.8 16 -8.9 42 42 SW 16 26 30.01 1016 10 16 0.00 0.00
11:53 am 11:53 Sunny 38 3.3 14 -10 37 37 WSW 29 46 29.98 1015 10 16 0.00 0.00
12:53 pm 12:53 Sunny 39 3.9 14 -10 36 36 SW 25 41 29.98 1015 10 16 0.00 0.00
1:53 pm 13:53 Sunny 38 3.3 15 -9.4 39 39 WSW 29 46 29.97 1015 10 16 0.00 0.00
2:53 pm 14:53 Sunny 38 3.3 15 -9.4 39 39 WSW 29 46 29.98 1015 10 16 0.00 0.00
3:53 pm 15:53 Sunny 35 1.7 17 -8.3 48 48 WSW 24 39 30.03 1017 10 16 0.00 0.00
4:53 pm 16:53 Mostly Sunny 31 -0.6 19 -7.2 61 61 WSW 21 33 30.07 1018 10 16 0.00 0.00
5:53 pm 17:53 Clear 27 -2.8 20 -6.7 75 75 SW 14 22 30.11 1020 10 16 0.00 0.00
6:53 pm 18:53 Clear 25 -3.9 19 -7.2 78 78 SW 13 20 30.14 1021 10 16 0.00 0.00
7:53 pm 19:53 Clear 25 -3.9 16 -8.9 69 69 SW 14 22 30.14 1021 10 16 0.00 0.00
8:53 pm 20:53 Clear 25 -3.9 15 -9.4 66 66 SW 15 24 30.15 1021 10 16 0.00 0.00
9:53 pm 21:53 Clear 21 -6.1 14 -10 74 74 SW 12 19 30.16 1021 10 16 0.00 0.00
10:53 pm 22:53 Clear 21 -6.1 13 -10.6 71 71 SW 8 13 30.16 1021 10 16 0.00 0.00
11:53 pm 23:53 Clear 25 -3.9 15 -9.4 66 66 SW 10 17 30.15 1021 10 16 0.00 0.00

Powered by AerisWeather